TimeMST,TemperatureF,Dew PointF,Humidity,Sea Level PressureIn,VisibilityMPH,Wind Direction,Wind SpeedMPH,Gust SpeedMPH,PrecipitationIn,Events,Conditions,WindDirDegrees,DateUTC
12:53 AM,30.9,15.1,52,30.30,10.0,WSW,12.7,24.2,N/A,,Clear,240,2014-01-21 07:53:00
1:53 AM,30.9,14.0,50,30.28,10.0,SSW,24.2,33.4,N/A,,Clear,210,2014-01-21 08:53:00
2:53 AM,30.9,12.0,46,30.27,10.0,WSW,23.0,-,N/A,,Clear,240,2014-01-21 09:53:00
3:53 AM,30.9,12.9,47,30.25,10.0,SW,23.0,-,N/A,,Clear,230,2014-01-21 10:53:00
4:53 AM,30.9,12.0,46,30.25,10.0,SW,24.2,-,N/A,,Clear,220,2014-01-21 11:53:00
5:53 AM,30.0,12.0,47,30.27,10.0,SW,25.3,34.5,N/A,,Clear,220,2014-01-21 12:53:00
6:53 AM,30.0,10.9,45,30.29,10.0,SW,24.2,31.1,N/A,,Clear,230,2014-01-21 13:53:00
7:53 AM,30.9,10.0,42,30.29,10.0,SW,25.3,35.7,N/A,,Clear,230,2014-01-21 14:53:00
8:53 AM,32.0,12.0,44,30.30,10.0,SW,27.6,36.8,N/A,,Clear,220,2014-01-21 15:53:00
9:53 AM,35.1,12.0,39,30.27,10.0,SW,21.9,34.5,N/A,,Clear,230,2014-01-21 16:53:00
10:53 AM,36.0,12.9,39,30.27,10.0,SSW,26.5,35.7,N/A,,Clear,210,2014-01-21 17:53:00
11:53 AM,37.9,14.0,38,30.24,10.0,SSW,26.5,34.5,N/A,,Clear,210,2014-01-21 18:53:00
12:53 PM,41.0,16.0,36,30.19,10.0,SSW,24.2,32.2,N/A,,Clear,210,2014-01-21 19:53:00
1:53 PM,41.0,16.0,36,30.18,10.0,SSW,17.3,29.9,N/A,,Clear,210,2014-01-21 20:53:00
2:53 PM,42.1,18.0,38,30.17,10.0,SSW,20.7,-,N/A,,Clear,210,2014-01-21 21:53:00
3:53 PM,41.0,19.0,41,30.18,10.0,SSW,12.7,24.2,N/A,,Clear,200,2014-01-21 22:53:00
4:53 PM,37.0,19.9,50,30.20,10.0,North,-9999.0,-,N/A,,Clear,0,2014-01-21 23:53:00
5:53 PM,33.1,19.9,59,30.24,10.0,West,9.2,-,N/A,,Clear,280,2014-01-22 00:53:00
6:53 PM,30.9,19.0,61,30.23,10.0,West,9.2,-,N/A,,Clear,270,2014-01-22 01:53:00
7:53 PM,27.0,18.0,69,30.25,10.0,West,8.1,-,N/A,,Clear,270,2014-01-22 02:53:00
8:53 PM,26.1,18.0,71,30.25,10.0,NNW,8.1,-,N/A,,Clear,330,2014-01-22 03:53:00
9:53 PM,24.1,17.1,75,30.24,10.0,West,8.1,-,N/A,,Clear,280,2014-01-22 04:53:00
10:53 PM,21.0,16.0,81,30.25,10.0,WNW,6.9,-,N/A,,Clear,290,2014-01-22 05:53:00
11:53 PM,24.1,16.0,71,30.22,10.0,WSW,4.6,-,N/A,,Clear,240,2014-01-22 06:53:00